Starlink 30081

operational
NORAD ID: 57515 Int'l Des: 2023-113 Owner: SPXS Country: US Constellation: starlink
LEOCIRCULAR

关于 Starlink 30081

正在加载描述...

实时位置

正在加载3D地球...

即将过境

高度历史

Altitude vs Time

uPlot chart will show altitude changes over time

两行轨道根数

1 57515U 23113X 25261.27401430 -.00000100 00000-0 76331-5 0 9997
2 57515 42.9997 234.2751 0000538 306.8314 53.2479 15.02532303117722
Epoch: Sep 18, 2025 • Age: 9 hours

当前状态

高度 564.1 km
速度 7.58 km/s
星下点 -21.63°S, 152.96°W
发射日期 Aug 7, 2023
运行时间 2.1 years
类型 internet

技术详情

分类 Payload
质量 730.00 kg
干质量 700.00 kg
总质量 730.00 kg
长度 0.30 m
直径 4.10 m
跨度 29.00 m
形状 Box + pan
制造商 SPXS
平台类型 Starlink V2M
阶段状态 In Orbit
所有者/国家 SPXS/US

大型星座

Loading constellations...